TimeCST,TemperatureF,Dew PointF,Humidity,Sea Level PressureIn,VisibilityMPH,Wind Direction,Wind SpeedMPH,Gust SpeedMPH,PrecipitationIn,Events,Conditions,WindDirDegrees,DateUTC
12:15 AM,39.2,33.8,81,29.95,10.0,Calm,Calm,-,N/A,,Overcast,0,2012-12-08 06:15:00
12:35 AM,39.2,33.8,81,29.96,10.0,Calm,Calm,-,N/A,,Overcast,0,2012-12-08 06:35:00
12:55 AM,39.2,33.8,81,29.95,10.0,Calm,Calm,-,N/A,,Overcast,0,2012-12-08 06:55:00
1:15 AM,39.2,33.8,81,29.94,10.0,North,4.6,-,N/A,,Overcast,360,2012-12-08 07:15:00
1:35 AM,37.4,32.0,81,29.95,10.0,North,3.5,-,N/A,,Mostly Cloudy,350,2012-12-08 07:35:00
1:55 AM,35.6,30.2,81,29.96,10.0,NNW,4.6,-,N/A,,Scattered Clouds,330,2012-12-08 07:55:00
2:15 AM,35.6,30.2,81,29.96,10.0,NNW,4.6,-,N/A,,Clear,330,2012-12-08 08:15:00
2:55 AM,33.8,28.4,81,29.96,10.0,North,6.9,-,N/A,,Clear,350,2012-12-08 08:55:00
3:15 AM,33.8,28.4,81,29.97,10.0,North,5.8,-,N/A,,Clear,350,2012-12-08 09:15:00
3:35 AM,33.8,26.6,75,29.97,10.0,North,6.9,-,N/A,,Clear,350,2012-12-08 09:35:00
3:55 AM,33.8,26.6,75,29.97,10.0,North,6.9,-,N/A,,Clear,350,2012-12-08 09:55:00
4:15 AM,32.0,26.6,80,29.98,10.0,North,4.6,-,N/A,,Clear,350,2012-12-08 10:15:00
4:35 AM,30.2,26.6,86,29.98,10.0,North,3.5,-,N/A,,Clear,360,2012-12-08 10:35:00
5:15 AM,30.2,24.8,80,30.00,10.0,NNW,3.5,-,N/A,,Scattered Clouds,340,2012-12-08 11:15:00
5:35 AM,30.2,24.8,80,29.99,10.0,Calm,Calm,-,N/A,,Scattered Clouds,0,2012-12-08 11:35:00
5:55 AM,28.4,23.0,80,30.00,10.0,North,4.6,-,N/A,,Clear,360,2012-12-08 11:55:00
6:15 AM,28.4,23.0,80,30.00,10.0,North,4.6,-,N/A,,Scattered Clouds,10,2012-12-08 12:15:00
6:35 AM,28.4,23.0,80,30.01,10.0,Calm,Calm,-,N/A,,Scattered Clouds,0,2012-12-08 12:35:00
6:55 AM,28.4,23.0,80,30.01,10.0,NNE,3.5,-,N/A,,Clear,20,2012-12-08 12:55:00
7:15 AM,26.6,21.2,80,30.01,10.0,Calm,Calm,-,N/A,,Clear,0,2012-12-08 13:15:00
7:35 AM,28.4,23.0,80,30.01,7.0,Calm,Calm,-,N/A,,Clear,0,2012-12-08 13:35:00
7:55 AM,28.4,23.0,80,30.00,7.0,Calm,Calm,-,N/A,,Clear,0,2012-12-08 13:55:00
8:15 AM,28.4,23.0,80,30.01,7.0,Calm,Calm,-,N/A,,Clear,0,2012-12-08 14:15:00
8:35 AM,30.2,24.8,80,30.02,10.0,Calm,Calm,-,N/A,,Clear,0,2012-12-08 14:35:00
8:55 AM,30.2,26.6,86,30.02,10.0,Calm,Calm,-,N/A,,Clear,0,2012-12-08 14:55:00
9:15 AM,32.0,26.6,80,30.02,10.0,Calm,Calm,-,N/A,,Clear,0,2012-12-08 15:15:00
9:35 AM,33.8,28.4,81,30.03,10.0,Calm,Calm,-,N/A,,Clear,0,2012-12-08 15:35:00
9:55 AM,35.6,28.4,75,30.03,10.0,Calm,Calm,-,N/A,,Clear,0,2012-12-08 15:55:00
10:15 AM,35.6,30.2,81,30.03,7.0,Calm,Calm,-,N/A,,Clear,0,2012-12-08 16:15:00
10:35 AM,37.4,30.2,75,30.03,7.0,Calm,Calm,-,N/A,,Clear,0,2012-12-08 16:35:00
10:55 AM,39.2,32.0,75,30.03,7.0,East,5.8,-,N/A,,Scattered Clouds,100,2012-12-08 16:55:00
11:15 AM,39.2,33.8,81,30.03,7.0,East,4.6,-,N/A,,Scattered Clouds,90,2012-12-08 17:15:00
11:35 AM,39.2,33.8,81,30.03,7.0,East,8.1,-,N/A,,Scattered Clouds,100,2012-12-08 17:35:00
11:55 AM,37.4,32.0,81,30.02,4.0,ESE,6.9,-,N/A,,Haze,110,2012-12-08 17:55:00
12:15 PM,39.2,33.8,81,30.01,4.0,ESE,6.9,-,N/A,,Haze,120,2012-12-08 18:15:00
12:35 PM,37.4,32.0,81,30.00,4.0,SSE,4.6,-,N/A,,Haze,150,2012-12-08 18:35:00
12:55 PM,39.2,32.0,75,30.00,5.0,ENE,4.6,-,N/A,,Haze,70,2012-12-08 18:55:00
1:15 PM,39.2,33.8,81,29.99,5.0,East,4.6,-,N/A,,Haze,100,2012-12-08 19:15:00
1:35 PM,39.2,33.8,81,29.99,7.0,East,3.5,-,N/A,,Mostly Cloudy,90,2012-12-08 19:35:00
1:55 PM,39.2,33.8,81,29.98,7.0,East,4.6,-,N/A,,Scattered Clouds,80,2012-12-08 19:55:00
2:15 PM,39.2,33.8,81,29.98,7.0,ENE,8.1,-,N/A,,Clear,70,2012-12-08 20:15:00
2:35 PM,39.2,33.8,81,29.97,5.0,East,8.1,-,N/A,,Haze,90,2012-12-08 20:35:00
2:55 PM,39.2,33.8,81,29.97,5.0,East,8.1,-,N/A,,Haze,80,2012-12-08 20:55:00
3:15 PM,39.2,32.0,75,29.98,7.0,East,8.1,-,N/A,,Scattered Clouds,90,2012-12-08 21:15:00
3:35 PM,39.2,32.0,75,29.98,7.0,East,8.1,-,N/A,,Clear,90,2012-12-08 21:35:00
3:55 PM,39.2,32.0,75,29.98,7.0,ESE,6.9,-,N/A,,Scattered Clouds,110,2012-12-08 21:55:00
4:15 PM,39.2,32.0,75,29.99,7.0,ESE,3.5,-,N/A,,Mostly Cloudy,120,2012-12-08 22:15:00
4:35 PM,37.4,32.0,81,29.99,7.0,ESE,5.8,-,N/A,,Mostly Cloudy,120,2012-12-08 22:35:00
4:55 PM,37.4,32.0,81,29.99,7.0,East,4.6,-,N/A,,Overcast,100,2012-12-08 22:55:00
5:15 PM,37.4,32.0,81,29.98,7.0,ESE,4.6,-,N/A,,Overcast,110,2012-12-08 23:15:00
5:35 PM,37.4,32.0,81,29.97,7.0,East,6.9,-,N/A,,Mostly Cloudy,90,2012-12-08 23:35:00
5:55 PM,37.4,32.0,81,29.97,7.0,East,8.1,-,N/A,,Mostly Cloudy,100,2012-12-08 23:55:00
6:15 PM,37.4,32.0,81,29.95,7.0,ESE,15.0,-,N/A,,Mostly Cloudy,110,2012-12-09 00:15:00
6:35 PM,37.4,32.0,81,29.96,10.0,ESE,11.5,-,N/A,,Overcast,110,2012-12-09 00:35:00
6:55 PM,37.4,32.0,81,29.97,10.0,ESE,10.4,-,N/A,,Overcast,110,2012-12-09 00:55:00
7:15 PM,37.4,32.0,81,29.97,7.0,ESE,11.5,-,N/A,,Overcast,110,2012-12-09 01:15:00
7:35 PM,37.4,30.2,75,29.97,7.0,ESE,11.5,-,N/A,,Scattered Clouds,110,2012-12-09 01:35:00
7:55 PM,37.4,30.2,75,29.97,7.0,East,9.2,-,N/A,,Mostly Cloudy,100,2012-12-09 01:55:00
8:15 PM,37.4,30.2,75,29.97,7.0,ESE,9.2,-,N/A,,Overcast,110,2012-12-09 02:15:00
8:35 PM,37.4,32.0,81,29.97,7.0,ESE,10.4,-,N/A,,Overcast,110,2012-12-09 02:35:00
8:55 PM,37.4,32.0,81,29.97,7.0,ESE,9.2,-,N/A,,Overcast,110,2012-12-09 02:55:00
9:15 PM,37.4,32.0,81,29.98,7.0,ESE,6.9,-,N/A,,Overcast,120,2012-12-09 03:15:00
9:35 PM,37.4,32.0,81,29.96,7.0,East,9.2,-,N/A,,Overcast,80,2012-12-09 03:35:00
9:55 PM,37.4,32.0,81,29.96,7.0,East,8.1,-,N/A,,Overcast,90,2012-12-09 03:55:00
10:35 PM,37.4,32.0,81,29.97,7.0,East,6.9,-,N/A,,Overcast,90,2012-12-09 04:35:00
10:55 PM,37.4,32.0,81,29.96,7.0,East,9.2,-,N/A,,Overcast,100,2012-12-09 04:55:00
11:15 PM,37.4,33.8,87,29.95,7.0,East,10.4,-,N/A,,Overcast,100,2012-12-09 05:15:00
11:35 PM,39.2,33.8,81,29.95,5.0,ESE,9.2,-,N/A,,Haze,120,2012-12-09 05:35:00
11:55 PM,39.2,33.8,81,29.96,5.0,ESE,6.9,-,N/A,,Haze,120,2012-12-09 05:55:00